📊 Raw Sensor Data

Showing records 35851 to 35875 of 84,885 total

ID Distance (ft) Battery V Battery A Int Temp (°F) Int Humid (%) Ext Temp (°F) Solar V RSSI SNR Time Stamp
49047 15.0 3.80 -5 60 44 61 0.00 -70 8 08/13/2025 03:30 AM
49046 15.0 3.80 -5 60 44 61 0.00 -69 8 08/13/2025 03:15 AM
49045 15.0 3.80 -5 59 44 60 0.00 -71 8 08/13/2025 03:00 AM
49044 15.0 3.80 -5 59 44 60 0.00 -71 8 08/13/2025 02:45 AM
49043 15.0 3.80 -35 59 44 60 0.00 -70 8 08/13/2025 02:30 AM
49042 15.0 3.90 -5 59 44 60 0.00 -70 8 08/13/2025 02:15 AM
49041 15.0 3.81 -5 59 44 60 0.00 -69 8 08/13/2025 02:00 AM
49040 15.0 3.81 -5 59 44 60 0.00 -71 8 08/13/2025 01:45 AM
49039 15.0 3.81 -5 59 44 60 0.00 -71 7 08/13/2025 01:30 AM
49038 15.0 3.80 -5 59 44 60 0.10 -71 7 08/13/2025 01:15 AM
49037 15.0 3.80 -5 58 45 59 0.00 -72 7 08/13/2025 01:00 AM
49036 15.0 3.80 -5 58 45 59 0.00 -71 8 08/13/2025 12:45 AM
49035 15.0 3.80 -5 59 45 60 0.00 -69 8 08/13/2025 12:30 AM
49034 15.0 3.80 -5 59 45 60 0.10 -69 8 08/13/2025 12:15 AM
49033 14.9 3.80 -5 59 45 60 0.00 -70 8 08/13/2025 12:00 AM
49032 15.0 3.80 -5 59 45 60 0.10 -70 8 08/12/2025 11:45 PM
49031 15.0 3.79 -5 59 45 60 0.10 -71 8 08/12/2025 11:30 PM
49030 15.0 3.79 -5 59 46 60 0.00 -68 8 08/12/2025 11:15 PM
49029 15.0 3.80 -5 60 46 61 0.00 -70 8 08/12/2025 11:00 PM
49028 15.0 3.80 -5 60 46 61 0.00 -68 7 08/12/2025 10:45 PM
49027 15.0 3.91 -5 61 47 61 0.00 -71 8 08/12/2025 10:30 PM
49026 15.0 3.91 -5 61 47 62 0.00 -69 7 08/12/2025 10:15 PM
49025 15.0 3.81 -5 62 47 62 0.00 -70 8 08/12/2025 10:00 PM
49024 15.0 3.81 -5 63 48 63 0.00 -72 7 08/12/2025 09:45 PM
49023 15.0 3.81 -5 63 49 64 0.00 -70 8 08/12/2025 09:30 PM